User: anonymous   Login
Location: Unspecified
(0.0000°N, 0.0000°E)
Time: 09:00:40
(UTC+00:00)
Language:

USA 136 - Orbit

View from above orbital plane
View from above orbital plane
View from above satellite
View from above satellite

Ground track
Ground track

The orbit data is extracted from the following two-line orbital elements,

1 25034U 97068A   17224.81871941 0.00000000  00000-0  00000-0 0    02
2 25034  63.3490 216.9113 6250111 285.3021  16.9904  2.00595000    01
Epoch (UTC): 12 August 2017 19:38:57
Eccentricity: 0.6250111
inclination: 63.3490°
perigee height: 3580 km
apogee height: 36778 km
right ascension of ascending node: 216.9113°
argument of perigee: 285.3021°
revolutions per day: 2.00595000
mean anomaly at epoch: 16.9904°
orbit number at epoch: 0

The dashed part of the orbit path shows where the satellite is in the earth's shadow,  

DLR